EW8359 Weather Reports


time (UTC)temp
F
wind
direction
speed
knots
gust
knots
rain 1hr
in
rain 24hr
in
rain mn
in
humidity
%
barometer
mb
20260506073047 58 106 0.0 0.0 0.00 0.00 0.00 77 1006.3
20260506071557 57 114 0.0 0.0 0.00 0.00 0.00 80 1006.1
20260506061538 58 190 0.0 0.0 0.00 0.00 0.00 78 1005.8
20260506044528 58 183 0.0 0.0 0.00 0.00 0.00 83 1005.8
20260506043027 58 183 0.0 0.0 0.00 0.00 0.00 83 1005.7
20260506041530 58 246 0.0 0.0 0.00 0.00 0.00 82 1005.8
20260506040026 58 247 0.0 0.0 0.00 0.00 0.00 82 1005.9
20260506034521 59 247 0.0 0.0 0.00 0.00 0.00 80 1005.8
20260506033027 59 247 0.0 0.0 0.00 0.00 0.00 80 1005.5
20260506031525 60 247 0.0 0.0 0.00 0.00 0.00 79 1005.6
20260506030024 60 247 0.0 0.0 0.00 0.00 0.00 77 1005.6
20260506024520 62 247 0.0 0.0 0.00 0.00 0.00 75 1005.5
20260506023018 63 247 0.0 0.0 0.00 0.00 0.00 74 1005.7
20260506021518 64 247 0.0 0.0 0.00 0.00 0.00 72 1006.1
20260506020022 64 248 0.0 0.0 0.00 0.00 0.00 71 1005.9
20260506014519 65 256 0.0 0.0 0.00 0.00 0.00 70 1006.0
20260506013025 65 184 0.0 0.0 0.00 0.00 0.00 69 1005.8
20260506011517 66 181 0.0 0.0 0.00 0.00 0.00 67 1006.1
20260506010024 67 209 0.0 0.0 0.00 0.00 0.00 66 1006.0
20260506004523 67 229 0.0 0.0 0.00 0.00 0.00 64 1005.7
20260506003014 67 167 0.0 0.0 0.00 0.00 0.00 62 1005.3
20260506001515 67 146 0.0 0.0 0.00 0.00 0.00 63 1005.1
20260506000019 67 259 0.0 0.0 0.00 0.00 0.00 64 1004.9
20260505234517 68 259 0.0 0.0 0.00 0.00 0.00 61 1004.3
20260505233013 69 260 0.0 0.0 0.00 0.00 0.00 60 1003.8
20260505231513 69 9 0.0 1.7 0.00 0.00 0.00 58 1003.4
20260505230015 70 259 0.0 13.0 0.00 0.00 0.00 56 1003.7
20260505224512 72 281 2.6 11.3 0.00 0.00 0.00 52 1003.6
20260505223031 73 262 0.0 5.2 0.00 0.00 0.00 45 1002.6
20260505221521 74 185 0.9 7.0 0.00 0.00 0.00 45 1001.5
20260505220033 75 139 0.0 8.7 0.00 0.00 0.00 44 1001.4
20260505214536 75 179 1.7 12.2 0.00 0.00 0.00 43 1001.2
20260505213033 76 148 4.3 17.4 0.00 0.00 0.00 43 1001.1
20260505211519 78 122 0.9 12.2 0.00 0.00 0.00 40 1000.8
20260505210019 79 65 3.5 18.2 0.00 0.00 0.00 40 1000.9
20260505204527 77 144 3.5 11.3 0.00 0.00 0.00 42 1000.8
20260505203021 79 38 0.9 12.2 0.00 0.00 0.00 39 1000.8
20260505201518 80 109 1.7 13.9 0.00 0.00 0.00 39 1001.0
20260505200018 80 140 0.9 9.6 0.00 0.00 0.00 41 1000.9
20260505194515 79 156 0.0 13.0 0.00 0.00 0.00 41 1001.1
20260505193034 79 117 1.7 11.3 0.00 0.00 0.00 39 1001.3
20260505191511 80 215 1.7 8.7 0.00 0.00 0.00 38 1001.7
20260505190023 80 186 1.7 9.6 0.00 0.00 0.00 39 1001.8
20260505184509 80 182 1.7 20.0 0.00 0.00 0.00 35 1002.1
20260505183015 80 247 1.7 9.6 0.00 0.00 0.00 37 1002.1
20260505181512 81 190 4.3 15.6 0.00 0.00 0.00 34 1002.4
20260505180003 82 274 1.7 10.4 0.00 0.00 0.00 34 1002.5
20260505174600 81 117 2.6 12.2 0.00 0.00 0.00 36 1002.8
20260505173158 81 196 0.9 7.8 0.00 0.00 0.00 37 1003.0
20260505171553 80 247 2.6 13.9 0.00 0.00 0.00 36 1003.3
20260505170058 80 246 3.5 12.2 0.00 0.00 0.00 38 1003.5
20260505164548 79 136 2.6 9.6 0.00 0.00 0.00 37 1003.7
20260505163043 78 281 0.0 11.3 0.00 0.00 0.00 41 1004.3
20260505161540 78 117 0.9 10.4 0.00 0.00 0.00 40 1004.5
20260505153032 74 139 0.9 7.0 0.00 0.00 0.00 46 1005.4
20260505151526 73 207 0.0 5.2 0.00 0.00 0.00 46 1005.5
20260505124607 62 163 0.0 5.2 0.00 0.00 0.00 58 1006.4
20260505123112 62 222 0.0 7.0 0.00 0.00 0.00 57 1006.2
20260505121555 61 134 0.0 7.0 0.00 0.00 0.00 58 1005.8
20260505120054 59 211 0.0 7.0 0.00 0.00 0.00 61 1005.9
20260505114556 58 203 0.0 2.6 0.00 0.00 0.00 63 1006.1
20260505113051 55 143 0.0 7.0 0.00 0.00 0.00 68 1006.1
20260505111546 53 209 0.0 4.3 0.00 0.00 0.00 74 1006.1
20260505101545 46 133 0.0 0.0 0.00 0.00 0.00 82 1006.2
20260505100041 46 133 0.0 0.0 0.00 0.00 0.00 82 1006.2
20260505094539 47 133 0.0 0.0 0.00 0.00 0.00 81 1006.3
20260505093044 47 133 0.0 0.0 0.00 0.00 0.00 81 1006.3
20260505091543 46 129 0.0 0.0 0.00 0.00 0.00 81 1006.2
20260505090047 46 129 0.0 0.0 0.00 0.00 0.00 81 1006.2
20260505084532 47 129 0.0 0.0 0.00 0.00 0.00 79 1006.3
20260505083029 48 129 0.0 0.0 0.00 0.00 0.00 77 1006.4
20260505081535 49 129 0.0 0.0 0.00 0.00 0.00 76 1006.4
20260505080043 49 129 0.0 0.0 0.00 0.00 0.00 74 1006.5
20260505074520 50 129 0.0 0.0 0.00 0.00 0.00 73 1006.5